TAY3RQ GVAC-GOBD

Flight info

Callsign TAY3RQ
Flight time 1h 3m
Altitude 37000
Route IRPOT1A POLMO DCT LUMPO DCT LIGOV LIGOV1A
Aircraft B738/M-SDE2E3FGHIRWXY/LB1

Departure

Time 2026-04-28 17:20
Airport Amílcar Cabral International Airport (GVAC)

Arrival

Time 2026-04-28 18:23
Airport Blaise Diagne International Airport (GOBD)
Time Latitude Longitude Altitude Speed Heading
2026-04-28 16:44 16.73433 -22.94495 180 ft 0 kts 89°
2026-04-28 17:08 16.73432 -22.94511 180 ft 2 kts 89°
2026-04-28 17:08 16.73432 -22.94528 180 ft 2 kts 89°
2026-04-28 17:08 16.73432 -22.94545 180 ft 2 kts 89°
2026-04-28 17:09 16.73432 -22.94561 180 ft 2 kts 89°
2026-04-28 17:09 16.73431 -22.94578 180 ft 2 kts 89°
2026-04-28 17:09 16.73435 -22.94594 180 ft 2 kts 156°
2026-04-28 17:09 16.73438 -22.94596 180 ft 0 kts 179°
2026-04-28 17:11 16.73423 -22.94596 195 ft 4 kts 179°
2026-04-28 17:12 16.73388 -22.94595 180 ft 6 kts 179°
2026-04-28 17:12 16.73339 -22.94595 180 ft 8 kts 179°
2026-04-28 17:12 16.73279 -22.94595 180 ft 9 kts 180°
2026-04-28 17:12 16.73207 -22.94594 181 ft 11 kts 179°
2026-04-28 17:13 16.73124 -22.94594 181 ft 12 kts 181°
2026-04-28 17:13 16.73065 -22.94640 181 ft 12 kts 238°
2026-04-28 17:13 16.73011 -22.94690 181 ft 11 kts 186°
2026-04-28 17:13 16.72932 -22.94691 181 ft 12 kts 180°
2026-04-28 17:14 16.72839 -22.94691 181 ft 15 kts 180°
2026-04-28 17:14 16.72726 -22.94689 181 ft 18 kts 179°
2026-04-28 17:14 16.72589 -22.94689 181 ft 20 kts 179°
2026-04-28 17:14 16.72467 -22.94688 182 ft 10 kts 180°
2026-04-28 17:15 16.72411 -22.94721 182 ft 10 kts 254°
2026-04-28 17:15 16.72408 -22.94779 181 ft 2 kts 269°
2026-04-28 17:15 16.72408 -22.94780 181 ft 0 kts 269°
2026-04-28 17:17 16.72407 -22.94796 181 ft 5 kts 269°
2026-04-28 17:17 16.72407 -22.94839 181 ft 6 kts 269°
2026-04-28 17:18 16.72417 -22.94882 181 ft 7 kts 325°
2026-04-28 17:18 16.72435 -22.94886 181 ft 0 kts 355°
2026-04-28 17:19 16.72494 -22.94887 181 ft 32 kts 359°
2026-04-28 17:19 16.72963 -22.94889 183 ft 101 kts
2026-04-28 17:19 16.73866 -22.94866 223 ft 152 kts
2026-04-28 17:19 16.74943 -22.94772 761 ft 158 kts
2026-04-28 17:20 16.76058 -22.94677 1416 ft 166 kts
2026-04-28 17:20 16.76855 -22.94622 1742 ft 178 kts
2026-04-28 17:20 16.78574 -22.94593 2544 ft 191 kts
2026-04-28 17:20 16.79946 -22.94601 3098 ft 204 kts 360°
2026-04-28 17:21 16.81440 -22.94607 3488 ft 224 kts
2026-04-28 17:21 16.83011 -22.94154 3728 ft 254 kts 33°
2026-04-28 17:21 16.84174 -22.92685 4300 ft 270 kts 66°
2026-04-28 17:22 16.83687 -22.88824 5533 ft 289 kts 129°
2026-04-28 17:22 16.82534 -22.87112 6249 ft 293 kts 123°
2026-04-28 17:22 16.81560 -22.85216 6884 ft 300 kts 120°
2026-04-28 17:23 16.79736 -22.81269 8337 ft 303 kts 119°
2026-04-28 17:23 16.78840 -22.79256 9029 ft 308 kts 119°
2026-04-28 17:23 16.77931 -22.77220 9791 ft 310 kts 120°
2026-04-28 17:23 16.76999 -22.75130 10152 ft 327 kts 120°
2026-04-28 17:24 16.76012 -22.72909 10375 ft 346 kts 119°
2026-04-28 17:24 16.74990 -22.70601 10925 ft 351 kts 118°
2026-04-28 17:24 16.73958 -22.68268 11534 ft 356 kts 118°
2026-04-28 17:24 16.73266 -22.66707 11930 ft 360 kts 117°
2026-04-28 17:25 16.72208 -22.64322 12574 ft 363 kts 117°
2026-04-28 17:25 16.69715 -22.58706 14110 ft 371 kts 116°
2026-04-28 17:25 16.68625 -22.56251 14689 ft 375 kts 116°
2026-04-28 17:26 16.67879 -22.54573 15076 ft 378 kts 115°
2026-04-28 17:26 16.66768 -22.52071 15658 ft 383 kts 115°
2026-04-28 17:26 16.65656 -22.49568 16228 ft 387 kts 115°
2026-04-28 17:26 16.64517 -22.47007 16801 ft 391 kts 115°
2026-04-28 17:27 16.63365 -22.44418 17368 ft 396 kts 114°
2026-04-28 17:27 16.62202 -22.41803 17953 ft 400 kts 114°
2026-04-28 17:27 16.61026 -22.39160 18479 ft 404 kts 114°
2026-04-28 17:27 16.59838 -22.36493 18969 ft 407 kts 114°
2026-04-28 17:28 16.58639 -22.33803 19485 ft 410 kts 114°
2026-04-28 17:28 16.56219 -22.28376 20491 ft 416 kts 114°
2026-04-28 17:28 16.54996 -22.25635 20979 ft 419 kts 114°
2026-04-28 17:29 16.53762 -22.22871 21467 ft 422 kts 114°
2026-04-28 17:29 16.52518 -22.20086 21948 ft 425 kts 115°
2026-04-28 17:29 16.51281 -22.17316 22419 ft 428 kts 115°
2026-04-28 17:30 16.48749 -22.11653 23358 ft 433 kts 114°
2026-04-28 17:30 16.46182 -22.05916 24115 ft 440 kts 115°
2026-04-28 17:30 16.44879 -22.03005 24458 ft 444 kts 115°
2026-04-28 17:31 16.43568 -22.00077 24810 ft 447 kts 115°
2026-04-28 17:31 16.40918 -21.94163 25503 ft 453 kts 115°
2026-04-28 17:32 16.38246 -21.88207 26174 ft 460 kts 115°
2026-04-28 17:32 16.36888 -21.85182 26496 ft 463 kts 115°
2026-04-28 17:32 16.35518 -21.82132 26834 ft 466 kts 115°
2026-04-28 17:32 16.34142 -21.79070 27140 ft 469 kts 115°
2026-04-28 17:33 16.32754 -21.75980 27447 ft 472 kts 115°
2026-04-28 17:33 16.31356 -21.72872 27748 ft 475 kts 115°
2026-04-28 17:33 16.29950 -21.69744 28049 ft 478 kts 115°
2026-04-28 17:33 16.28995 -21.67623 28254 ft 480 kts 115°
2026-04-28 17:34 16.27143 -21.63428 28650 ft 484 kts 113°
2026-04-28 17:34 16.25888 -21.60158 28937 ft 487 kts 111°
2026-04-28 17:34 16.24701 -21.56839 29208 ft 490 kts 110°
2026-04-28 17:34 16.23541 -21.53503 29522 ft 491 kts 110°
2026-04-28 17:35 16.22383 -21.50158 29841 ft 492 kts 110°
2026-04-28 17:35 16.21207 -21.46792 30080 ft 496 kts 110°
2026-04-28 17:35 16.20029 -21.43453 30262 ft 499 kts 110°
2026-04-28 17:35 16.18822 -21.40060 30482 ft 501 kts 111°
2026-04-28 17:36 16.17603 -21.36655 30752 ft 502 kts 111°
2026-04-28 17:36 16.16379 -21.33248 31005 ft 503 kts 111°
2026-04-28 17:36 16.15151 -21.29835 31232 ft 505 kts 111°
2026-04-28 17:36 16.13915 -21.26401 31446 ft 507 kts 111°
2026-04-28 17:37 16.12679 -21.22969 31671 ft 508 kts 111°
2026-04-28 17:37 16.11438 -21.19522 31938 ft 508 kts 111°
2026-04-28 17:37 16.10200 -21.16082 32275 ft 507 kts 111°
2026-04-28 17:37 16.08963 -21.12648 32626 ft 505 kts 111°
2026-04-28 17:38 16.07728 -21.09222 32895 ft 506 kts 111°
2026-04-28 17:38 16.06508 -21.05839 33156 ft 507 kts 111°
2026-04-28 17:38 16.05270 -21.02409 33473 ft 506 kts 111°
2026-04-28 17:38 16.04036 -20.98989 33812 ft 504 kts 111°
2026-04-28 17:39 16.02797 -20.95561 34111 ft 503 kts 111°
2026-04-28 17:39 16.01568 -20.92161 34365 ft 503 kts 111°
2026-04-28 17:39 15.99110 -20.85366 34928 ft 500 kts 111°
2026-04-28 17:40 15.97893 -20.82004 35355 ft 495 kts 111°
2026-04-28 17:40 15.96685 -20.78668 35731 ft 491 kts 112°
2026-04-28 17:40 15.95491 -20.75374 35915 ft 492 kts 112°
2026-04-28 17:40 15.94279 -20.72033 36048 ft 495 kts 112°
2026-04-28 17:41 15.93062 -20.68680 36264 ft 494 kts 112°
2026-04-28 17:41 15.91850 -20.65341 36559 ft 492 kts 112°
2026-04-28 17:41 15.90642 -20.62014 36849 ft 490 kts 112°
2026-04-28 17:41 15.89439 -20.58704 37030 ft 491 kts 112°
2026-04-28 17:42 15.88237 -20.55401 36998 ft 494 kts 112°
2026-04-28 17:42 15.85812 -20.48736 37000 ft 491 kts 112°
2026-04-28 17:43 15.83399 -20.42111 37003 ft 488 kts 112°
2026-04-28 17:43 15.81000 -20.35532 37009 ft 486 kts 112°
2026-04-28 17:44 15.78603 -20.28968 37008 ft 485 kts 112°
2026-04-28 17:44 15.76212 -20.22424 37008 ft 485 kts 112°
2026-04-28 17:45 15.73823 -20.15895 37010 ft 487 kts 112°
2026-04-28 17:45 15.71415 -20.09320 37018 ft 488 kts 112°
2026-04-28 17:46 15.68996 -20.02718 37004 ft 489 kts 112°
2026-04-28 17:46 15.66587 -19.96097 37000 ft 491 kts 112°
2026-04-28 17:47 15.64237 -19.89483 37000 ft 492 kts 112°
2026-04-28 17:47 15.61871 -19.82811 36999 ft 492 kts 112°
2026-04-28 17:48 15.59499 -19.76152 36999 ft 492 kts 112°
2026-04-28 17:48 15.57119 -19.69490 36999 ft 492 kts 112°
2026-04-28 17:49 15.54756 -19.62884 36996 ft 491 kts 112°
2026-04-28 17:49 15.52380 -19.56244 36997 ft 490 kts 112°
2026-04-28 17:50 15.50003 -19.49612 36993 ft 489 kts 112°
2026-04-28 17:50 15.47639 -19.43019 36994 ft 489 kts 112°
2026-04-28 17:51 15.45289 -19.36410 36994 ft 488 kts 112°
2026-04-28 17:51 15.42994 -19.29781 36987 ft 487 kts 111°
2026-04-28 17:52 15.40711 -19.23163 36909 ft 486 kts 111°
2026-04-28 17:52 15.39582 -19.19903 36546 ft 484 kts 111°
2026-04-28 17:52 15.37329 -19.13411 35842 ft 473 kts 111°
2026-04-28 17:53 15.36218 -19.10217 35458 ft 470 kts 111°
2026-04-28 17:53 15.35107 -19.07028 35072 ft 468 kts 111°
2026-04-28 17:53 15.34005 -19.03864 34667 ft 466 kts 111°
2026-04-28 17:53 15.32908 -19.00720 34277 ft 464 kts 111°
2026-04-28 17:54 15.31812 -18.97577 33852 ft 463 kts 111°
2026-04-28 17:54 15.30720 -18.94447 33435 ft 460 kts 111°
2026-04-28 17:54 15.29634 -18.91336 33037 ft 457 kts 111°
2026-04-28 17:54 15.28570 -18.88291 32656 ft 455 kts 111°
2026-04-28 17:55 15.27497 -18.85220 32280 ft 452 kts 110°
2026-04-28 17:55 15.26430 -18.82168 31899 ft 450 kts 110°
2026-04-28 17:55 15.25366 -18.79126 31526 ft 447 kts 110°
2026-04-28 17:55 15.24311 -18.76108 31159 ft 445 kts 110°
2026-04-28 17:56 15.23256 -18.73095 30787 ft 443 kts 110°
2026-04-28 17:56 15.22205 -18.70097 30410 ft 442 kts 110°
2026-04-28 17:56 15.21158 -18.67109 30028 ft 440 kts 110°
2026-04-28 17:56 15.20113 -18.64128 29600 ft 438 kts 110°
2026-04-28 17:57 15.19079 -18.61177 29197 ft 434 kts 110°
2026-04-28 17:57 15.18051 -18.58246 28808 ft 431 kts 110°
2026-04-28 17:57 15.17042 -18.55374 28431 ft 427 kts 110°
2026-04-28 17:57 15.16030 -18.52492 28056 ft 424 kts 110°
2026-04-28 17:58 15.15024 -18.49629 27684 ft 421 kts 110°
2026-04-28 17:58 15.14025 -18.46787 27309 ft 417 kts 110°
2026-04-28 17:58 15.13036 -18.43976 26946 ft 414 kts 111°
2026-04-28 17:58 15.12051 -18.41174 26570 ft 412 kts 111°
2026-04-28 17:59 15.11088 -18.38440 26217 ft 409 kts 111°
2026-04-28 17:59 15.10116 -18.35679 25863 ft 406 kts 111°
2026-04-28 17:59 15.09149 -18.32935 25498 ft 404 kts 111°
2026-04-28 17:59 15.08191 -18.30216 25145 ft 402 kts 111°
2026-04-28 18:00 15.07232 -18.27498 24771 ft 400 kts 111°
2026-04-28 18:00 15.06280 -18.24798 24403 ft 398 kts 111°
2026-04-28 18:00 15.05331 -18.22109 24048 ft 396 kts 111°
2026-04-28 18:00 15.04386 -18.19434 23679 ft 395 kts 111°
2026-04-28 18:01 15.03444 -18.16768 23278 ft 393 kts 111°
2026-04-28 18:01 15.02509 -18.14121 22886 ft 390 kts 111°
2026-04-28 18:01 15.01590 -18.11520 22521 ft 387 kts 111°
2026-04-28 18:01 15.00668 -18.08913 22165 ft 384 kts 111°
2026-04-28 18:02 14.99752 -18.06324 21810 ft 381 kts 111°
2026-04-28 18:02 14.98844 -18.03759 21451 ft 378 kts 111°
2026-04-28 18:02 14.97943 -18.01214 21103 ft 376 kts 111°
2026-04-28 18:02 14.97046 -17.98683 20763 ft 373 kts 111°
2026-04-28 18:03 14.96156 -17.96171 20419 ft 371 kts 111°
2026-04-28 18:03 14.95270 -17.93670 20077 ft 369 kts 111°
2026-04-28 18:03 14.94388 -17.91185 19734 ft 367 kts 111°
2026-04-28 18:03 14.93510 -17.88710 19377 ft 365 kts 111°
2026-04-28 18:04 14.92637 -17.86249 19039 ft 364 kts 111°
2026-04-28 18:04 14.91767 -17.83800 18700 ft 362 kts 110°
2026-04-28 18:04 14.90900 -17.81361 18351 ft 361 kts 111°
2026-04-28 18:04 14.90036 -17.78929 17959 ft 361 kts 111°
2026-04-28 18:05 14.89176 -17.76506 17608 ft 358 kts 111°
2026-04-28 18:05 14.88608 -17.74907 17372 ft 356 kts 111°
2026-04-28 18:05 14.87470 -17.71706 16917 ft 353 kts 111°
2026-04-28 18:05 14.86624 -17.69329 16580 ft 351 kts 111°
2026-04-28 18:06 14.85784 -17.66970 16243 ft 349 kts 111°
2026-04-28 18:06 14.84958 -17.64649 15916 ft 347 kts 111°
2026-04-28 18:06 14.84128 -17.62319 15586 ft 344 kts 112°
2026-04-28 18:06 14.83300 -17.59996 15258 ft 343 kts 112°
2026-04-28 18:07 14.82476 -17.57684 14928 ft 341 kts 112°
2026-04-28 18:07 14.81658 -17.55392 14591 ft 340 kts 112°
2026-04-28 18:07 14.80840 -17.53098 14255 ft 338 kts 112°
2026-04-28 18:07 14.80027 -17.50820 13914 ft 338 kts 112°
2026-04-28 18:08 14.79212 -17.48537 13563 ft 337 kts 113°
2026-04-28 18:08 14.78404 -17.46272 13205 ft 335 kts 113°
2026-04-28 18:08 14.77601 -17.44024 12877 ft 332 kts 113°
2026-04-28 18:08 14.76813 -17.41828 12579 ft 328 kts 113°
2026-04-28 18:09 14.75981 -17.39657 12364 ft 320 kts 114°
2026-04-28 18:09 14.75213 -17.37476 11867 ft 325 kts 111°
2026-04-28 18:09 14.74484 -17.35275 11637 ft 319 kts 113°
2026-04-28 18:09 14.73312 -17.33381 11172 ft 312 kts 143°
2026-04-28 18:10 14.71430 -17.32432 10962 ft 297 kts 173°
2026-04-28 18:10 14.69450 -17.32579 10733 ft 287 kts 200°
2026-04-28 18:10 14.67689 -17.33491 10500 ft 282 kts 208°
2026-04-28 18:10 14.65905 -17.34313 10195 ft 280 kts 199°
2026-04-28 18:11 14.64030 -17.34841 9938 ft 277 kts 191°
2026-04-28 18:11 14.62160 -17.35020 9843 ft 268 kts 179°
2026-04-28 18:11 14.60278 -17.34814 9434 ft 272 kts 169°
2026-04-28 18:11 14.58472 -17.34339 9340 ft 263 kts 165°
2026-04-28 18:12 14.57315 -17.33971 9184 ft 261 kts 163°
2026-04-28 18:12 14.55586 -17.33352 8922 ft 264 kts 161°
2026-04-28 18:12 14.53867 -17.32655 8634 ft 267 kts 158°
2026-04-28 18:12 14.52166 -17.31873 8423 ft 267 kts 156°
2026-04-28 18:13 14.50510 -17.30964 8151 ft 270 kts 150°
2026-04-28 18:13 14.48934 -17.29903 7920 ft 272 kts 146°
2026-04-28 18:13 14.47420 -17.28698 7622 ft 277 kts 141°
2026-04-28 18:13 14.45968 -17.27362 7323 ft 281 kts 138°
2026-04-28 18:14 14.44591 -17.25923 7058 ft 281 kts 134°
2026-04-28 18:14 14.43327 -17.24384 6747 ft 281 kts 129°
2026-04-28 18:14 14.42172 -17.22754 6443 ft 281 kts 125°
2026-04-28 18:14 14.41154 -17.21064 6162 ft 280 kts 121°
2026-04-28 18:15 14.40254 -17.19292 5886 ft 279 kts 116°
2026-04-28 18:15 14.39475 -17.17451 5541 ft 280 kts 112°
2026-04-28 18:15 14.38828 -17.15565 5363 ft 275 kts 107°
2026-04-28 18:15 14.38330 -17.13683 5243 ft 267 kts 103°
2026-04-28 18:16 14.37969 -17.11852 5155 ft 258 kts 99°
2026-04-28 18:16 14.37740 -17.10039 4991 ft 253 kts 89°
2026-04-28 18:16 14.38059 -17.08266 4685 ft 250 kts 61°
2026-04-28 18:16 14.39175 -17.07018 4631 ft 230 kts 25°
2026-04-28 18:17 14.40635 -17.06728 4658 ft 204 kts 353°
2026-04-28 18:17 14.42017 -17.06820 4561 ft 195 kts 353°
2026-04-28 18:17 14.43355 -17.06891 4379 ft 190 kts 354°
2026-04-28 18:17 14.44690 -17.06919 4202 ft 196 kts 356°
2026-04-28 18:18 14.46064 -17.06940 3922 ft 201 kts 356°
2026-04-28 18:18 14.47445 -17.06956 3695 ft 195 kts 355°
2026-04-28 18:18 14.48790 -17.06981 3438 ft 192 kts 357°
2026-04-28 18:18 14.49664 -17.07000 3307 ft 188 kts 356°
2026-04-28 18:19 14.51390 -17.07058 2960 ft 182 kts 354°
2026-04-28 18:19 14.52639 -17.07136 2714 ft 179 kts 355°
2026-04-28 18:19 14.53869 -17.07147 2510 ft 173 kts 358°
2026-04-28 18:19 14.55064 -17.07153 2271 ft 171 kts 358°
2026-04-28 18:20 14.56244 -17.07186 2037 ft 168 kts 358°
2026-04-28 18:20 14.57384 -17.07225 1801 ft 164 kts 359°
2026-04-28 18:20 14.58503 -17.07257 1625 ft 158 kts 360°
2026-04-28 18:20 14.59588 -17.07272 1377 ft 152 kts
2026-04-28 18:21 14.60578 -17.07263 1263 ft 134 kts
2026-04-28 18:21 14.61507 -17.07247 1067 ft 134 kts
2026-04-28 18:21 14.62440 -17.07239 901 ft 136 kts
2026-04-28 18:21 14.63399 -17.07253 777 ft 139 kts
2026-04-28 18:22 14.64368 -17.07263 578 ft 138 kts
2026-04-28 18:22 14.65292 -17.07271 375 ft 131 kts
2026-04-28 18:22 14.66169 -17.07272 300 ft 115 kts 357°
2026-04-28 18:22 14.66817 -17.07279 298 ft 72 kts 360°
2026-04-28 18:23 14.67202 -17.07284 293 ft 48 kts 359°
2026-04-28 18:23 14.67508 -17.07285 289 ft 38 kts 359°
2026-04-28 18:23 14.67715 -17.07237 287 ft 29 kts 27°
2026-04-28 18:23 14.67867 -17.07147 288 ft 18 kts 32°
2026-04-28 18:24 14.67966 -17.07102 286 ft 12 kts
2026-04-28 18:24 14.68018 -17.07099 286 ft 11 kts 359°
2026-04-28 18:24 14.68061 -17.07039 286 ft 10 kts 103°
2026-04-28 18:24 14.68021 -17.06991 286 ft 9 kts 166°
2026-04-28 18:25 14.67957 -17.06986 287 ft 9 kts 178°
2026-04-28 18:25 14.67894 -17.06984 287 ft 9 kts 178°
2026-04-28 18:25 14.67871 -17.06963 287 ft 5 kts 107°
2026-04-28 18:26 14.67867 -17.06914 287 ft 0 kts 92°